Regional Weather Roundup
Issued by NWS

Home | Current Version | Previous Version | Graphics & Text | Print | Product List | Glossary On
Versions: 1 2 3 4 5 6 7 8 9 10 11 12 13 14 15 16 17 18 19 20 21 22 23 24 25 26 27 28 29 30 31 32 33 34 35 36 37 38 39 40 41 42 43 44 45 46 47 48 49 50
000
ASUS43 KLOT 111300
RWRIL

ILLINOIS REGIONAL WEATHER ROUNDUP
NATIONAL WEATHER SERVICE CHICAGO/ROMEOVILLE IL
800 AM CDT FRI JUL 11 2014

NOTE: "FAIR" INDICATES FEW OR NO CLOUDS BELOW 12,000 FEET WITH NO
SIGNIFICANT WEATHER AND/OR OBSTRUCTIONS TO VISIBILITY.

* THESE STATIONS ARE NOT UNDER NWS QUALITY CONTROL. THEY ALSO MAY NOT
  REPORT WEATHER SUCH AS PRECIPITATION OR FOG.

ILZ001-002-007-009-015-016-024-111400-
NORTHWEST ILLINOIS

CITY           SKY/WX    TMP DP  RH WIND       PRES   REMARKS
MOLINE         PTSUNNY   67  56  67 S10       30.16F
STERLING*      PTSUNNY   66  59  77 SE3       30.20S
$$

ILZ003-004-008-010-011-017-018-111400-
NORTH CENTRAL ILLINOIS

CITY           SKY/WX    TMP DP  RH WIND       PRES   REMARKS
ROCKFORD       PTSUNNY   66  57  72 S3        30.21R
$$

ILZ005-006-012>014-019>023-111400-
NORTHEAST ILLINOIS

CITY           SKY/WX    TMP DP  RH WIND       PRES   REMARKS
CHICAGO-OHARE  MOSUNNY   68  53  58 S3        30.22R
CHICAGO-MIDWAY MOSUNNY   70  55  59 S3        30.22R
AURORA         SUNNY     66  55  67 SE3       30.22R
WAUKEGAN       SUNNY     68  54  60 S5        30.21R
DUPAGE AIRPORT SUNNY     67  56  67 S5        30.22R
WHEELING       SUNNY     69  55  60 S7        30.23R
NORTHERLY ISL    N/A     69  53  56 S3          N/A
$$

LMZ740>746-111400-
SOUTHERN LAKE MICHIGAN

STATION/POSITION SKY/WX   TEMP    WIND        PRES    VSBY  WAVE
                          AIR SEA DIR/SP/G                  HT/PER
                          (F)     (DEG/KT/KT) (MB)    (MI)  (FT/S)
SOUTHERN BUOY              61 58  170/  6/  6 1022.7R         0
WAUKEGAN HARBOR            67     180/  6/  6 1024.4S
HARRISON CRIB              65     180/  9/ 10   N/A
BURNHAM HARBOR             69     180/  1/  5   N/A
CALUMET HARBOR             66     210/  3/  4 1023.7R
MICHIGAN CITY              63     120/  6/  7   N/A
$$

ILZ025>027-034>036-040-047-049-050-058-095>099-111400-
WEST-CENTRAL ILLINOIS

CITY           SKY/WX    TMP DP  RH WIND       PRES   REMARKS
QUINCY         SUNNY     68  58  70 SE8       30.16R
$$

ILZ028>032-037-038-041>044-048-051>054-059>061-111400-
CENTRAL ILLINOIS

CITY           SKY/WX    TMP DP  RH WIND       PRES   REMARKS
DECATUR        SUNNY     66  59  78 E3        30.21R
PEORIA         MOSUNNY   67  55  65 S3        30.20R
SPRINGFIELD    SUNNY     69  59  70 SE5       30.19R
TAYLORVILLE    NOT AVBL
$$

ILZ033-039-045-046-055>057-062-063-111400-
EAST-CENTRAL ILLINOIS

CITY           SKY/WX    TMP DP  RH WIND       PRES   REMARKS
CHAMPAIGN      PTSUNNY   66  58  75 E7        30.22R
MATTOON          N/A     68  57  68 SE6       30.20R
$$

ILZ079-100>102-111400-
SOUTHWEST ILLINOIS

CITY           SKY/WX    TMP DP  RH WIND       PRES   REMARKS
ALTON          SUNNY     66  64  94 SE6       30.19R
BELLEVILLE     SUNNY     67  63  84 SE3       30.18R
CAHOKIA*       SUNNY     69  61  75 SE5       30.18R
$$

ILZ064>066-069>071-074>076-080>082-084>086-088>090-092>094-111400-
SOUTH-CENTRAL ILLINOIS

CITY           SKY/WX    TMP DP  RH WIND       PRES   REMARKS
CARBONDALE     SUNNY     68  63  84 CALM      30.18R
MARION         SUNNY     68  64  88 E7        30.19S
MT. VERNON     SUNNY     70  61  73 E5        30.20S
$$

ILZ067-068-072-073-078-083-087-091-111400-
SOUTHEAST ILLINOIS

CITY           SKY/WX    TMP DP  RH WIND       PRES   REMARKS
$$

ABBREVIATIONS USED IN REMARKS
   TC - TEMPERATURE IN CELSIUS
  WCI - WIND CHILL INDEX
   HX - HEAT INDEX
  VSB - VISIBILITY
$$




USA.gov is the U.S. government's official web portal to all federal, state and local government web resources and services.